Location: Cucq
(50.4773°N, 1.6202°E)
Time: 06:29:19
(UTC+00:00)

Cosmos 2195 Rocket - Pass Details

Date: 07 August 2020
Orbit: 949 x 993 km, 82.9° (Epoch: 23 September)

Event Time Altitude Azimuth Distance (km) Brightness Sun altitude
Rises 01:25:15 0° 348° (NNW) 3,698 8.5 -20.6°
Reaches altitude 10° 01:27:47 10° 347° (NNW) 2,751 7.6 -20.4°
Maximum altitude 01:34:04 74° 265° (W) 1,033 4.5 -20.0°
Enters shadow 01:37:07 33° 187° (S) 1,611 5.1 -19.8°
